TimeAST,TemperatureF,Dew PointF,Humidity,Sea Level PressureIn,VisibilityMPH,Wind Direction,Wind SpeedMPH,Gust SpeedMPH,PrecipitationIn,Events,Conditions,WindDirDegrees,DateUTC
12:00 AM,26.6,21.2,80,29.57,10.0,WSW,9.2,-,N/A,Snow,Light Snow Showers,250,2013-01-05 04:00:00
1:00 AM,26.6,21.2,80,29.57,12.0,WSW,9.2,-,N/A,Snow,Light Snow Showers,240,2013-01-05 05:00:00
2:00 AM,26,22,78,29.57,12,West,10.4,,,Snow,Light Snow Showers,260,2013-01-05 06:00:00
2:00 AM,26.6,21.2,80,29.57,12.0,West,9.2,-,N/A,,Overcast,260,2013-01-05 06:00:00
3:00 AM,26.6,21.2,80,29.60,12.0,WNW,10.4,17.3,N/A,Snow,Light Snow Showers,290,2013-01-05 07:00:00
5:00 AM,21.2,19.4,93,29.59,15.0,WNW,2.3,-,N/A,,Mostly Cloudy,290,2013-01-05 09:00:00
6:00 AM,23.0,21.2,93,29.60,15.0,WSW,4.6,-,N/A,,Mostly Cloudy,240,2013-01-05 10:00:00
7:18 AM,23.0,19.4,86,29.62,15.0,WSW,4.6,-,N/A,Snow,Light Snow Showers,250,2013-01-05 11:18:00
8:00 AM,23,21,90,29.63,2,WSW,5.8,,,Snow,Light Snow Showers,240,2013-01-05 12:00:00
8:00 AM,23.0,21.2,93,29.63,2.0,WSW,5.8,-,N/A,Snow,Light Snow Showers,250,2013-01-05 12:00:00
9:00 AM,24.8,21.2,86,29.63,5.0,West,5.8,-,N/A,Snow,Light Snow Showers,280,2013-01-05 13:00:00
9:29 AM,24.8,21.2,86,29.65,1.5,NW,9.2,-,N/A,Snow,Light Snow Showers,310,2013-01-05 13:29:00
9:41 AM,23.0,21.2,93,29.65,0.5,NW,9.2,-,N/A,Snow,Snow Showers,320,2013-01-05 13:41:00
10:00 AM,23.0,21.2,93,29.66,1.5,NW,6.9,-,N/A,Snow,Light Snow Showers,320,2013-01-05 14:00:00
10:09 AM,23.0,21.2,93,29.66,3.0,NW,11.5,17.3,N/A,Snow,Light Snow Showers,310,2013-01-05 14:09:00
10:32 AM,23.0,21.2,93,29.68,0.8,WNW,10.4,-,N/A,Snow,Light Snow Showers,300,2013-01-05 14:32:00
10:53 AM,23.0,21.2,93,29.69,0.5,NW,10.4,17.3,N/A,Snow,Snow Showers,320,2013-01-05 14:53:00
11:00 AM,23.0,21.2,93,29.70,0.5,NNW,9.2,-,N/A,Snow,Snow Showers,330,2013-01-05 15:00:00
11:27 AM,23.0,19.4,86,29.72,1.5,NW,18.4,29.9,N/A,Snow,Light Snow Showers,310,2013-01-05 15:27:00
12:00 PM,23.0,17.6,80,29.73,5.0,NW,16.1,26.5,N/A,Snow,Light Snow Showers,320,2013-01-05 16:00:00
1:00 PM,21.2,12.2,68,29.77,15.0,NW,16.1,28.8,N/A,Snow,Light Snow Showers,310,2013-01-05 17:00:00
2:00 PM,19.4,8.6,63,29.82,15.0,WNW,19.6,29.9,N/A,Snow,Light Snow Showers,300,2013-01-05 18:00:00
3:00 PM,17.6,6.8,63,29.87,15.0,WNW,20.7,32.2,N/A,Snow,Light Snow Showers,300,2013-01-05 19:00:00
4:00 PM,17.6,6.8,63,29.93,15.0,WNW,17.3,28.8,N/A,Snow,Light Snow Showers,290,2013-01-05 20:00:00
5:00 PM,15.8,5.0,62,29.98,15.0,WNW,19.6,32.2,N/A,Snow,Low Drifting Snow,290,2013-01-05 21:00:00
6:00 PM,15.8,3.2,58,30.03,15.0,West,15.0,25.3,N/A,Snow,Low Drifting Snow,280,2013-01-05 22:00:00
7:00 PM,14.0,1.4,57,30.06,15.0,WNW,16.1,27.6,N/A,Snow,Low Drifting Snow,290,2013-01-05 23:00:00
8:00 PM,12,1,47,30.09,15,WNW,15.0,,,Snow,Low Drifting Snow,290,2013-01-06 00:00:00
8:00 PM,12.2,1.4,62,30.09,15.0,WNW,15.0,25.3,N/A,Snow,Low Drifting Snow,290,2013-01-06 00:00:00
9:00 PM,12.2,1.4,62,30.11,15.0,WNW,16.1,23.0,N/A,Snow,Low Drifting Snow,290,2013-01-06 01:00:00
10:00 PM,10.4,-0.4,62,30.12,15.0,West,12.7,19.6,N/A,Snow,Low Drifting Snow,280,2013-01-06 02:00:00
10:09 PM,10.4,1.4,67,30.12,12.0,West,12.7,21.9,N/A,Snow,Light Snow Showers,280,2013-01-06 02:09:00
11:00 PM,10.4,-0.4,62,30.13,15.0,WNW,11.5,21.9,N/A,Snow,Low Drifting Snow,290,2013-01-06 03:00:00